Terminal Aerodrome Forecast
Issued by NWS

Home | Current Version | Previous Version | Text Only | Print | Product List | Glossary On
Versions: 1 2 3 4 5 6 7 8 9 10 11 12 13 14 15 16
000
FTUS45 KTFX 220532
TAFLWT
TAF
KLWT 220532Z 2206/2306 25009KT P6SM VCSH BKN030
     FM220900 28010KT 4SM -SHSN BR OVC015
      TEMPO 2210/2214 1SM -SN BR OVC008
     FM221500 31007KT 2SM -SHSN BR SCT008 BKN020
     FM221600 32006KT 1 1/2SM -SHSN BR OVC008
      TEMPO 2220/2224 3/4SM -SN BR OVC005=

USA.gov is the U.S. government's official web portal to all federal, state and local government web resources and services.